Location: *
(43.9905°S, 176.4941°W)
Time: 20:14:16
(UTC+00:00)

Envisat - Visible Passes

Search period start: 27 February 2021 00:00
Search period end: 09 March 2021 00:00
Orbit: 764 x 766 km, 98.1° (Epoch: 27 February)

Date Brightness Start Highest point End Pass type
(mag) Time Alt. Az. Time Alt. Az. Time Alt. Az.
27 Feb 3.5 16:15:34 10° NNE 16:20:38 65° ESE 16:25:45 10° S visible
28 Feb 5.0 15:39:33 10° NE 15:44:00 31° ESE 15:48:32 10° S visible
01 Mar 6.1 07:05:36 10° SSW 07:08:40 16° WSW 07:11:44 10° W visible
01 Mar 6.0 15:04:34 10° E 15:07:37 16° ESE 15:10:40 10° SSE visible
01 Mar 3.0 16:40:53 10° N 16:45:59 75° WNW 16:51:11 10° SSW visible
02 Mar 4.0 16:04:18 10° NE 16:09:15 52° ESE 16:14:15 10° S visible
03 Mar 5.3 15:28:32 10° ENE 15:32:41 26° ESE 15:36:53 10° S visible
04 Mar 6.0 06:53:45 10° SSW 06:57:23 20° WSW 07:01:00 10° WNW visible
04 Mar 6.2 14:54:04 10° E 14:56:21 13° ESE 14:58:38 10° SSE visible
04 Mar 3.1 16:29:26 10° NNE 16:34:34 87° E 16:39:46 10° SSW visible
05 Mar 4.4 15:53:05 10° NE 15:57:52 42° ESE 16:02:43 10° S visible
06 Mar 6.4 07:20:27 10° SW 07:22:25 12° WSW 07:24:23 10° W visible
06 Mar 5.6 15:17:38 10° ENE 15:21:23 21° ESE 15:25:10 10° SSE visible
06 Mar 3.1 16:54:58 10° N 16:59:59 55° W 17:05:04 10° SSW visible
07 Mar 6.4 14:44:14 10° ESE 14:45:06 10° SE 14:45:58 10° SE visible
07 Mar 3.4 16:18:04 10° NNE 16:23:09 70° ESE 16:28:18 10° S visible
08 Mar 4.8 15:41:58 10° NE 15:46:31 34° ESE 15:51:08 10° S visible
